Location: Trois-Rivi�res
(46.3500°N, 72.5500°W)
Time: 02:09:53
(UTC-04:00)

ISS - Pass Details

Date: 12 October 2017
Orbit: 401 x 408 km, 51.6° (Epoch: 23 October)

Event Time Altitude Azimuth Distance (km) Brightness Sun altitude
Rises 19:33:36 0° 295° (WNW) 2,327 1.4 -15.4°
Reaches altitude 10° 19:35:43 10° 290° (WNW) 1,466 0.2 -15.8°
Maximum altitude 19:38:55 50° 214° (SSW) 524 -3.2 -16.4°
Enters shadow 19:40:18 28° 153° (SSE) 791 -2.7 -16.6°
